sat.trackr.live / text

‹ back to catalog

STARLINK-6090

NORAD 56095 · 2023-046C

PAYLOAD ACTIVE UNKNOWN

§ Identity

Operator
Country
US
Launch date
2023-03-29
Launch site
AFETR
Launch vehicle
Mass (kg)
RCS (m²)

Purposes: comms

External: N2YO · Heavens-Above · Gunter

§ Orbital elements

Epoch: 2026-09-20T22:12:52.669440Z

Period
94.27 min
Inclination
43.0033°
Eccentricity
0.0001796
Mean motion
15.27576384 rev/d
Perigee alt
481.8 km
Apogee alt
484.3 km
Semi-major
6,861.2 km
B*
2.5149e-5
RAAN
138.6925°
Arg perigee
261.1313°
Mean anomaly
98.9336°
Rev number
19,189

§ Raw data

STARLINK-60901 56095U 23046C   26263.92560960  .00000430  00000+0  25149-4 0  99972 56095  43.0033 138.6925 0001796 261.1313  98.9336 15.27576384191898

JSON: /api/v1/satellites/56095 · /tle

For live sub-satellite position, see the globe view (requires WebGL).

§ Visibility from observer

Set your observer location to see the next 7 days of passes ≥ 10°. The values pass through the URL so the page stays shareable.

No JS? Fill the form by hand. The geolocation button needs JavaScript.